カタログに戻る

CZ-3B DEB

LostHEO
NORAD 42461·DEBRIS·🇨🇳 China

打ち上げ Sep 4, 2010 から Xichang Satellite Launch Center

Loading…

次のパス (今後24時間)

TLE

古いSource: Space-Track

元期: Sep 23, 2024, 19:34 UTC

1 42461U 10042AC  24267.81556100 -.00000219  00000-0  00000-0 0  9994
2 42461  22.0385 143.1479 7290603  52.8324 353.6118  1.78174029 68212

AllMySatでCZ-3B DEBをリアルタイム追跡

Download on the App Store